Вернуться в каталог

PEGASUS R/B

АктивенLEO
NORAD 27859·ROCKET BODY·🇺🇸 United States

Запущен Aug 13, 2003 с Vandenberg Space Force Base

Loading…

Ближайшие Пролёты (ближайшие 24 часа)

TLE

СвежийSource: Space-Track

Эпоха: Sep 14, 2026, 11:18 UTC

1 27859U 03036B   26257.47100339  .00000775  00000-0  88881-4 0  9998
2 27859  73.9227 275.4411 0006889 348.1947  11.9070 14.87888028247065

Отслеживайте PEGASUS R/B в реальном времени с AllMySat

Download on the App Store